Location: Cincinnati Observatory Center
(39.1389°N, 84.4225°W)
Time: 04:04:28
(UTC-05:00)

Amateur Radio Satellites - All Passes

Search period start: 25 February 2017 03:34
Search period end: 26 February 2017 03:34
Location: Cincinnati Observatory Center, 39.1389°N, 84.4225°W

Satellite Date Start Highest point End Downlink Frequencies (MHz)
Time Altitude Azimuth
RS-15 25 Feb 03:40:02 03:52:15 73° 244° (WSW) 04:03:53 29.354- 29.394
AO-7 25 Feb 03:46:54 03:54:50 47° 101° (E) 04:02:42 .
KKS-1 25 Feb 03:47:49 03:51:58 40° 71° (ENE) 03:56:06 437.445
Oscar 19 25 Feb 03:52:23 03:54:21 12° 300° (WNW) 03:56:19 437.125/150
CUBESAT XI-V 25 Feb 04:11:37 04:16:01 43° 72° (ENE) 04:20:25 437.345
ITAMSAT 1 25 Feb 04:22:32 04:27:41 59° 288° (WNW) 04:32:48 435.822/435.867
STARS 25 Feb 04:23:02 04:27:09 43° 72° (ENE) 04:31:18 437.465
AO-85 25 Feb 04:35:09 04:39:43 60° 118° (ESE) 04:43:57 145.980
MOZHAYETS 4 25 Feb 04:54:08 04:55:24 11° 270° (W) 04:56:39
M-CUBED/EXP-1 PRIME 25 Feb 04:59:06 05:02:23 87° 243° (WSW) 05:05:39 437.505
KKS-1 25 Feb 05:25:46 05:28:40 17° 267° (W) 05:31:34 437.445
AO-7 25 Feb 05:39:55 05:47:25 39° 299° (WNW) 05:54:53 .
CUBESAT XI-V 25 Feb 05:50:28 05:53:35 18° 267° (W) 05:56:41 437.345
KAITUO 1B 25 Feb 05:52:18 05:53:32 11° 91° (E) 05:54:44 145.475/437.950
XW-2F 25 Feb 05:55:29 05:57:49 15° 93° (E) 06:00:07 145.980 - 146.000
RS-15 25 Feb 05:56:25 06:02:20 15° 265° (W) 06:08:10 29.354- 29.394
BEESAT 3 25 Feb 05:58:42 06:01:48 23° 112° (ESE) 06:04:57 437.485
XW-2D 25 Feb 05:59:35 06:02:19 19° 94° (E) 06:05:01 145.860 - 145.880
STARS 25 Feb 06:01:03 06:03:41 16° 267° (W) 06:06:21 437.465
XW-2B 25 Feb 06:04:27 06:07:23 20° 95° (E) 06:10:16 145.730 - 145.750
STRAND 1 25 Feb 06:06:10 06:09:55 21° 64° (ENE) 06:13:40 437.568
DOVE 4 25 Feb 06:08:16 06:12:32 32° 97° (E) 06:16:57 437.250
XW-2C 25 Feb 06:12:48 06:16:04 26° 96° (E) 06:19:18 145.795 - 145.815
AO-85 25 Feb 06:17:38 06:20:24 16° 314° (NW) 06:23:04 145.980
NUDT-PHONESAT 25 Feb 06:25:47 06:29:09 30° 97° (E) 06:32:29 437.300
LilacSat-2 25 Feb 06:28:59 06:32:40 44° 99° (E) 06:36:20 437.200
BEESAT 2 25 Feb 06:36:08 06:39:20 24° 112° (ESE) 06:42:36 435.950
HO-68 25 Feb 06:43:16 06:46:20 13° 89° (E) 06:49:24 435.675
CUTE-I 25 Feb 07:07:21 07:12:46 89° 286° (WNW) 07:18:08 437.470
KAITUO 1B 25 Feb 07:24:11 07:27:46 43° 287° (WNW) 07:31:19 145.475/437.950
SO-50 25 Feb 07:24:53 07:29:18 54° 55° (NE) 07:33:41 436.795
XW-2F 25 Feb 07:28:37 07:32:03 32° 288° (WNW) 07:35:26 145.980 - 146.000
XW-2D 25 Feb 07:33:14 07:36:30 27° 289° (WNW) 07:39:43 145.860 - 145.880
BEESAT 3 25 Feb 07:35:53 07:39:17 28° 309° (NW) 07:42:44 437.485
XW-2B 25 Feb 07:38:23 07:41:31 24° 290° (WNW) 07:44:38 145.730 - 145.750
XW-2A 25 Feb 07:42:57 07:46:21 50° 100° (E) 07:49:42 145.665 - 145.685
STRAND 1 25 Feb 07:43:48 07:48:44 47° 261° (W) 07:53:42 437.568
DOVE 4 25 Feb 07:46:10 07:50:04 26° 290° (WNW) 07:54:10 437.250
XW-2C 25 Feb 07:47:19 07:50:05 19° 291° (WNW) 07:52:51 145.795 - 145.815
SEEDS 25 Feb 07:48:01 07:51:25 24° 95° (E) 07:54:48 437.485
ISS 25 Feb 07:57:11 08:00:17 38° 136° (SE) 08:03:23 437.550
NUDT-PHONESAT 25 Feb 08:00:25 08:02:50 16° 292° (WNW) 08:05:14 437.300
LilacSat-2 25 Feb 08:04:54 08:06:32 12° 295° (WNW) 08:08:10 437.200
O/OREOS (USA 219) 25 Feb 08:11:06 08:14:38 21° 58° (ENE) 08:18:09 437.305
BEESAT 2 25 Feb 08:13:35 08:17:00 27° 309° (NW) 08:20:29 435.950
Tancredo 1 25 Feb 08:23:17 08:26:32 80° 141° (SE) 08:29:47 437.200
CUTE 1.7 + AOD 2 25 Feb 08:25:16 08:29:29 77° 285° (WNW) 08:33:40 437.475
HO-68 25 Feb 08:27:46 08:34:58 84° 105° (ESE) 08:42:08 435.675
CUBEBUG 2 25 Feb 08:40:59 08:45:45 69° 101° (E) 08:50:26 437.445
PRISM 25 Feb 08:43:17 08:46:53 31° 70° (ENE) 08:50:29 437.425
CUTE-I 25 Feb 08:50:06 08:52:00 12° 301° (WNW) 08:53:53 437.470
UNISAT 6 25 Feb 08:50:40 08:53:31 17° 65° (ENE) 08:56:24 437.425
TIGRISAT 25 Feb 08:51:14 08:53:55 16° 64° (ENE) 08:56:37 435.000
AO-73 25 Feb 08:53:18 08:57:18 30° 96° (E) 09:01:12 145.935
Oscar 11 25 Feb 09:00:20 09:04:08 30° 96° (E) 09:07:55 .
FO-29 25 Feb 09:04:42 09:09:54 22° 58° (ENE) 09:15:20 435.910
SO-50 25 Feb 09:06:47 09:09:17 15° 251° (WSW) 09:11:45 436.795
AAUSAT CUBESAT 2 25 Feb 09:12:52 09:16:57 68° 284° (WNW) 09:21:01 437.432
DELFI C3 25 Feb 09:14:20 09:15:42 11° 91° (E) 09:17:04 145.870
UWE-3 25 Feb 09:18:55 09:23:35 75° 284° (WNW) 09:28:10 435.000/436.395/437.385
SEEDS 25 Feb 09:23:35 09:27:01 25° 291° (WNW) 09:30:26 437.485
ISS 25 Feb 09:34:00 09:36:49 25° 332° (NNW) 09:39:39 437.550
ZACube-1 25 Feb 09:40:25 09:45:00 74° 284° (WNW) 09:49:28 437.345
O/OREOS (USA 219) 25 Feb 09:49:55 09:54:08 37° 255° (WSW) 09:58:20 437.305
Tancredo 1 25 Feb 10:00:52 10:03:09 17° 338° (NNW) 10:05:26 437.200
AIST 2D 25 Feb 10:09:46 10:11:03 12° 66° (ENE) 10:12:19 435.315
QB50P2 25 Feb 10:14:10 10:15:30 11° 63° (ENE) 10:16:49 145.880/145.840
HO-68 25 Feb 10:17:11 10:21:48 19° 304° (WNW) 10:26:25 435.675
PRISM 25 Feb 10:19:17 10:22:12 19° 265° (W) 10:25:07 437.425
CUBEBUG 2 25 Feb 10:19:37 10:21:43 13° 297° (WNW) 10:23:50 437.445
UNISAT 6 25 Feb 10:25:29 10:29:48 47° 261° (W) 10:34:14 437.425
TIGRISAT 25 Feb 10:25:47 10:30:07 50° 261° (W) 10:34:36 435.000
AO-73 25 Feb 10:29:43 10:33:22 24° 292° (WNW) 10:36:58 145.935
Oscar 11 25 Feb 10:36:44 10:40:06 22° 292° (WNW) 10:43:25 .
YUBILEINY 25 Feb 10:41:08 10:49:49 65° 92° (E) 10:58:29 435.215
FO-29 25 Feb 10:46:51 10:53:54 80° 257° (WSW) 11:01:41 435.910
DELFI C3 25 Feb 10:46:58 10:50:44 46° 286° (WNW) 10:54:29 145.870
ESTCUBE 1 25 Feb 10:59:01 11:01:10 13° 91° (E) 11:03:18 437.505/2401.250
ISS 25 Feb 11:13:37 11:14:11 10° 352° (N) 11:14:46 437.550
DUCHIFAT 1 25 Feb 11:15:36 11:19:32 42° 72° (ENE) 11:23:32 145.980
EO-79 25 Feb 11:26:02 11:30:13 68° 75° (ENE) 11:34:27 145.935-145.965
LO-87 25 Feb 11:31:37 11:35:12 68° 101° (E) 11:38:47 145.935 - 145.965
AIST 2D 25 Feb 11:40:32 11:43:52 40° 261° (W) 11:47:16 435.315
NANOSAT C BR1 25 Feb 11:43:03 11:47:15 82° 257° (WSW) 11:51:31 145.865
POLYITAN 1 25 Feb 11:43:30 11:47:43 74° 258° (WSW) 11:52:00 437.675
QB50P2 25 Feb 11:46:32 11:50:43 63° 259° (W) 11:54:57 145.880/145.840
Oscar 19 25 Feb 11:50:29 11:52:46 13° 61° (ENE) 11:55:02 437.125/150
50 SAT 25 Feb 12:02:43 12:03:37 11° 92° (E) 12:04:31 437.505
BUGSAT 1 25 Feb 12:12:47 12:16:47 64° 75° (ENE) 12:20:52 437.445
Gurwin Techsat 1B 25 Feb 12:33:36 12:37:16 19° 63° (ENE) 12:40:56 435.225
ESTCUBE 1 25 Feb 12:33:55 12:38:16 53° 287° (WNW) 12:42:36 437.505/2401.250
FO-29 25 Feb 12:36:56 12:40:07 13° 276° (W) 12:43:26 435.910
YUBILEINY 25 Feb 12:40:08 12:47:14 27° 292° (WNW) 12:54:21 435.215
ISS 25 Feb 12:50:33 12:51:52 12° 13° (NNE) 12:53:11 437.550
DX 1 25 Feb 12:51:09 12:55:01 31° 97° (E) 12:58:53 434.975-435.025
DUCHIFAT 1 25 Feb 12:52:59 12:55:24 15° 268° (W) 12:57:50 145.980
AO-7 25 Feb 12:58:19 13:01:27 13° 46° (NE) 13:04:35 .
VELOX 1 25 Feb 12:59:11 13:03:37 88° 284° (WNW) 13:08:02 145.980
UKube-1 25 Feb 13:03:19 13:07:07 30° 97° (E) 13:10:54 .
SPROUT 25 Feb 13:07:19 13:11:39 85° 282° (WNW) 13:15:57 437.525
AO-85 25 Feb 13:07:42 13:11:15 32° 52° (NE) 13:14:50 145.980
Tancredo 1 25 Feb 13:16:01 13:17:55 14° 19° (NNE) 13:19:49 437.200
Oscar 19 25 Feb 13:26:15 13:31:24 78° 257° (WSW) 13:36:34 437.125/150
50 SAT 25 Feb 13:33:41 13:36:54 37° 287° (WNW) 13:40:07 437.505
ITAMSAT 1 25 Feb 14:01:20 14:05:21 23° 65° (ENE) 14:09:23 435.822/435.867
Gurwin Techsat 1B 25 Feb 14:11:35 14:16:46 54° 260° (W) 14:21:59 435.225
BEESAT 3 25 Feb 14:17:03 14:18:56 13° 43° (NE) 14:20:49 437.485
ISS 25 Feb 14:25:58 14:29:04 37° 32° (NNE) 14:32:09 437.550
DX 1 25 Feb 14:27:39 14:31:01 22° 293° (WNW) 14:34:23 434.975-435.025
UKube-1 25 Feb 14:39:37 14:42:59 23° 292° (WNW) 14:46:21 .
ITUPSAT 1 25 Feb 14:43:15 14:47:11 25° 95° (E) 14:51:04 437.325
AO-7 25 Feb 14:44:20 14:52:27 58° 66° (ENE) 15:00:35 .
AO-85 25 Feb 14:48:36 14:51:24 19° 248° (WSW) 14:54:15 145.980
BEESAT 25 Feb 14:49:36 14:53:47 29° 97° (E) 14:57:55 436.000
Tancredo 1 25 Feb 14:51:28 14:54:42 68° 38° (NE) 14:57:52 437.200
BEESAT 2 25 Feb 14:55:17 14:57:23 14° 44° (NE) 14:59:28 435.950
MOZHAYETS 4 25 Feb 15:10:28 15:13:30 17° 93° (E) 15:16:29
ITAMSAT 1 25 Feb 15:39:36 15:44:31 42° 261° (W) 15:49:29 435.822/435.867
BEESAT 3 25 Feb 15:53:00 15:57:00 70° 241° (WSW) 16:00:58 437.485
RS-15 25 Feb 15:53:20 16:01:05 20° 98° (E) 16:08:58 29.354- 29.394
PCSat 25 Feb 15:54:55 15:59:45 35° 110° (ESE) 16:04:38 145.827
ISS 25 Feb 16:02:47 16:05:22 22° 228° (SW) 16:07:57 437.550
CUBESAT XI-V 25 Feb 16:11:32 16:12:55 11° 90° (E) 16:14:18 437.345
ITUPSAT 1 25 Feb 16:20:44 16:25:00 33° 291° (WNW) 16:29:15 437.325
BEESAT 25 Feb 16:27:24 16:31:27 28° 292° (WNW) 16:35:27 436.000
Tancredo 1 25 Feb 16:29:35 16:30:32 11° 232° (SW) 16:31:29 437.200
BEESAT 2 25 Feb 16:31:34 16:35:35 66° 241° (WSW) 16:39:34 435.950
AO-7 25 Feb 16:38:27 16:45:32 30° 264° (W) 16:52:40 .
MOZHAYETS 4 25 Feb 16:46:28 16:50:50 43° 288° (WNW) 16:55:09
CUTE-I 25 Feb 16:50:34 16:53:55 17° 62° (ENE) 16:57:17 437.470
NO-84 25 Feb 16:52:56 16:55:53 40° 130° (SE) 16:59:07 435.350 FM
XW-2C 25 Feb 16:54:38 16:56:14 12° 65° (ENE) 16:57:49 145.795 - 145.815
NUDT-PHONESAT 25 Feb 17:05:37 17:07:24 13° 66° (ENE) 17:09:12 437.300
LilacSat-2 25 Feb 17:10:17 17:13:08 20° 69° (ENE) 17:15:59 437.200
DOVE 4 25 Feb 17:13:37 17:16:57 24° 69° (ENE) 17:20:18 437.250
KKS-1 25 Feb 17:15:44 17:20:14 85° 282° (WNW) 17:24:42 437.445
PCSat 25 Feb 17:38:17 17:43:07 32° 307° (NW) 17:47:59 145.827
CUBESAT XI-V 25 Feb 17:46:09 17:50:42 65° 285° (WNW) 17:55:13 437.345
STARS 25 Feb 17:49:12 17:53:39 82° 285° (WNW) 17:58:05 437.465
RS-15 25 Feb 17:59:43 18:11:37 85° 118° (ESE) 18:24:02 29.354- 29.394
KAITUO 1B 25 Feb 18:02:30 18:06:17 68° 75° (ENE) 18:10:05 145.475/437.950
XW-2F 25 Feb 18:07:36 18:11:26 85° 259° (W) 18:15:19 145.980 - 146.000
M-CUBED/EXP-1 PRIME 25 Feb 18:11:40 18:15:30 80° 107° (ESE) 18:19:38 437.505
XW-2D 25 Feb 18:12:26 18:16:16 69° 260° (W) 18:20:07 145.860 - 145.880
XW-2A 25 Feb 18:14:34 18:16:29 14° 68° (ENE) 18:18:25 145.665 - 145.685
XW-2B 25 Feb 18:17:31 18:21:19 61° 260° (W) 18:25:09 145.730 - 145.750
XW-2C 25 Feb 18:26:18 18:30:00 46° 261° (W) 18:33:44 145.795 - 145.815
CUTE-I 25 Feb 18:28:09 18:33:25 62° 259° (WSW) 18:38:44 437.470
NO-84 25 Feb 18:31:06 18:33:43 21° 330° (NNW) 18:36:31 435.350 FM
NUDT-PHONESAT 25 Feb 18:37:24 18:40:57 40° 262° (W) 18:44:33 437.300
SEEDS 25 Feb 18:39:22 18:41:54 16° 66° (ENE) 18:44:27 437.485
LilacSat-2 25 Feb 18:43:54 18:47:14 27° 264° (W) 18:50:35 437.200
DOVE 4 25 Feb 18:51:12 18:54:35 24° 265° (W) 18:58:00 437.250
HO-68 25 Feb 18:54:44 19:01:41 56° 69° (ENE) 19:08:40 435.675
CUTE 1.7 + AOD 2 25 Feb 19:16:15 19:20:28 63° 76° (ENE) 19:24:43 437.475
CUBEBUG 2 25 Feb 19:37:38 19:41:52 47° 73° (ENE) 19:46:17 437.445
XW-2A 25 Feb 19:46:03 19:49:00 27° 263° (W) 19:51:59 145.665 - 145.685
AO-73 25 Feb 19:47:53 19:51:14 21° 67° (ENE) 19:54:38 145.935
Oscar 11 25 Feb 19:54:20 19:57:35 21° 68° (ENE) 20:00:52 .
STRAND 1 25 Feb 19:55:07 20:00:16 65° 102° (ESE) 20:05:21 437.568
AAUSAT CUBESAT 2 25 Feb 20:01:19 20:05:26 65° 75° (ENE) 20:09:33 437.432
SEEDS 25 Feb 20:13:13 20:17:14 42° 262° (W) 20:21:16 437.485
UWE-3 25 Feb 20:14:08 20:18:34 75° 75° (ENE) 20:23:09 435.000/436.395/437.385
RS-15 25 Feb 20:15:03 20:25:43 34° 324° (NW) 20:36:41 29.354- 29.394
ZACube-1 25 Feb 20:34:24 20:38:49 74° 76° (ENE) 20:43:22 437.345
HO-68 25 Feb 20:43:54 20:49:43 26° 265° (W) 20:55:34 435.675
YUBILEINY 25 Feb 20:53:19 21:00:44 30° 70° (ENE) 21:08:04 435.215
CUTE 1.7 + AOD 2 25 Feb 20:56:14 20:56:41 10° 270° (W) 20:57:08 437.475
CUBEBUG 2 25 Feb 21:16:14 21:18:47 15° 269° (W) 21:21:22 437.445
AO-73 25 Feb 21:23:09 21:27:12 35° 264° (W) 21:31:21 145.935
Oscar 11 25 Feb 21:29:35 21:33:31 32° 263° (W) 21:37:27 .
DELFI C3 25 Feb 21:30:43 21:34:41 80° 76° (ENE) 21:38:39 145.870
STRAND 1 25 Feb 21:35:55 21:38:51 15° 298° (WNW) 21:41:47 437.568
SO-50 25 Feb 21:38:37 21:42:18 23° 112° (ESE) 21:45:57 436.795
ESTCUBE 1 25 Feb 21:58:27 22:00:04 12° 63° (ENE) 22:01:41 437.505/2401.250
FO-29 25 Feb 22:00:10 22:05:02 18° 87° (E) 22:09:38 435.910
PRISM 25 Feb 22:00:11 22:04:12 59° 101° (E) 22:08:14 437.425
LO-87 25 Feb 22:07:15 22:10:00 22° 70° (ENE) 22:12:47 145.935 - 145.965
UNISAT 6 25 Feb 22:18:07 22:22:32 39° 98° (E) 22:26:52 437.425
TIGRISAT 25 Feb 22:18:19 22:22:41 37° 97° (E) 22:26:57 435.000
O/OREOS (USA 219) 25 Feb 22:22:12 22:25:59 28° 103° (ESE) 22:29:47 437.305
RS-15 25 Feb 22:35:26 22:43:45 20° 359° (N) 22:52:01 29.354- 29.394
YUBILEINY 25 Feb 22:49:29 22:57:57 57° 270° (W) 23:06:21 435.215
AIST 2D 25 Feb 23:07:45 23:09:54 15° 93° (E) 23:12:02 435.315
JUGNU 25 Feb 23:10:37 23:11:56 11° 180° (S) 23:13:14 437.505
EO-79 25 Feb 23:13:47 23:15:29 12° 91° (E) 23:17:09 145.935-145.965
SO-50 25 Feb 23:18:09 23:22:32 39° 307° (NW) 23:26:53 436.795
NO-84 25 Feb 23:27:26 23:30:54 26° 33° (NNE) 23:34:32 435.350 FM
NANOSAT C BR1 25 Feb 23:29:27 23:32:17 17° 93° (E) 23:35:06 145.865
POLYITAN 1 25 Feb 23:30:14 23:33:21 19° 94° (E) 23:36:26 437.675
ESTCUBE 1 25 Feb 23:31:47 23:36:17 68° 259° (WSW) 23:40:47 437.505/2401.250
QB50P2 25 Feb 23:33:00 23:36:23 22° 95° (E) 23:39:44 145.880/145.840
PRISM 25 Feb 23:37:49 23:38:58 11° 297° (WNW) 23:40:08 437.425
LO-87 25 Feb 23:40:46 23:43:23 19° 265° (W) 23:46:01 145.935 - 145.965
FO-29 25 Feb 23:43:16 23:50:55 79° 286° (WNW) 23:57:47 435.910
DX 1 25 Feb 23:45:50 23:49:18 24° 68° (ENE) 23:52:45 434.975-435.025
VELOX 1 25 Feb 23:54:59 23:59:19 70° 75° (ENE) 00:03:42 145.980
UNISAT 6 25 Feb 23:55:29 23:58:56 21° 294° (WNW) 00:02:20 437.425
TIGRISAT 25 Feb 23:55:32 23:59:06 22° 293° (WNW) 00:02:38 435.000
UKube-1 25 Feb 23:57:00 00:00:21 23° 68° (ENE) 00:03:43 .
BUGSAT 1 25 Feb 23:58:22 23:59:04 10° 90° (E) 23:59:47 437.445
SPROUT 25 Feb 23:59:13 00:03:24 61° 74° (ENE) 00:07:37 437.525
O/OREOS (USA 219) 26 Feb 00:01:33 00:05:19 26° 300° (WNW) 00:09:07 437.305
50 SAT 26 Feb 00:06:02 00:09:29 62° 75° (ENE) 00:12:57 437.505
DUCHIFAT 1 26 Feb 00:35:48 00:40:05 88° 273° (W) 00:44:20 145.980
AIST 2D 26 Feb 00:40:05 00:43:10 28° 288° (WNW) 00:46:13 435.315
PCSat 26 Feb 00:43:46 00:48:11 24° 50° (NE) 00:52:34 145.827
EO-79 26 Feb 00:47:21 00:51:32 54° 286° (WNW) 00:55:42 145.935-145.965
RS-15 26 Feb 00:51:12 01:01:56 32° 34° (NE) 01:12:20 29.354- 29.394
NANOSAT C BR1 26 Feb 01:04:10 01:08:07 37° 288° (WNW) 01:12:03 145.865
NO-84 26 Feb 01:04:42 01:08:48 51° 228° (SW) 01:13:03 435.350 FM
POLYITAN 1 26 Feb 01:05:19 01:09:12 34° 289° (WNW) 01:13:04 437.675
QB50P2 26 Feb 01:08:26 01:12:09 29° 290° (WNW) 01:15:51 145.880/145.840
DX 1 26 Feb 01:21:38 01:25:20 28° 263° (W) 01:29:05 434.975-435.025
FO-29 26 Feb 01:30:25 01:34:34 16° 306° (NW) 01:38:32 435.910
BUGSAT 1 26 Feb 01:30:35 01:34:47 61° 286° (WNW) 01:38:59 437.445
UKube-1 26 Feb 01:32:27 01:36:12 29° 263° (W) 01:40:00 .
SPROUT 26 Feb 01:38:59 01:39:41 10° 270° (W) 01:40:23 437.525
Oscar 19 26 Feb 01:39:04 01:43:53 40° 99° (E) 01:48:40 437.125/150
ITUPSAT 1 26 Feb 01:48:55 01:52:53 26° 67° (ENE) 01:56:52 437.325
BEESAT 26 Feb 01:54:51 01:59:01 31° 69° (ENE) 02:03:12 436.000
SRMSAT 26 Feb 01:58:56 02:00:35 11° 182° (S) 02:02:15 437.500
MOZHAYETS 4 26 Feb 02:11:45 02:14:29 16° 65° (ENE) 02:17:14
PCSat 26 Feb 02:26:36 02:31:50 49° 247° (WSW) 02:37:01 145.827
Gurwin Techsat 1B 26 Feb 02:28:43 02:34:01 67° 102° (ESE) 02:39:18 435.225
AO-7 26 Feb 02:48:56 02:54:15 18° 92° (E) 02:59:32 .
RS-15 26 Feb 03:03:53 03:16:16 90° 57° (ENE) 03:28:04 29.354- 29.394
CUBESAT XI-V 26 Feb 03:14:32 03:15:47 11° 62° (ENE) 03:17:00 437.345
Oscar 19 26 Feb 03:18:56 03:22:56 24° 294° (WNW) 03:26:56 437.125/150
AO-85 26 Feb 03:22:15 03:24:56 15° 111° (ESE) 03:27:30 145.980
